USA 81

Last updated on Sun Jun 21 2026 00:02:15 GMT+0000 (Coordinated Universal Time)

1 21949U 92023A 26171.41838044 .00000130 00000+0 40565-4 0 9997 2 21949 85.0074 72.1427 0002754 82.0332 278.1173 14.32398946109491
UTC large
Height (km)
Speed (km/s)
/
Latitude / Longitude
Inclination (degrees)
Orbital Period (minutes)
Azimuth
Elevation
Range (km)
Doppler Factor

Next 0 passes for location: London (51.5072 / 0.1276)

No passes found over London.
USA 81